Total_Precipitation_Accumulation
0.18 0.24 0.36 0.33 0.24 0.22 0.25 0.29 0.32 0.30 0.25 0.22 0.19 0.17 0.15 0.15 0.18 0.20 0.21 0.25 0.32 0.42 0.48 0.53 0.60 0.57 0.61 0.64 0.64 0.61 0.63 0.76 0.88 0.96 1.01 1.05 1.20 1.45 1.57 1.74 1.82 1.33 1.17
0.06 0.15 0.28 0.29 0.21 0.19 0.20 0.23 0.25 0.26 0.22 0.20 0.18 0.15 0.15 0.16 0.19 0.20 0.22 0.27 0.34 0.38 0.41 0.43 0.52 0.53 0.51 0.51 0.54 0.55 0.62 0.82 1.10 1.24 1.37 1.31 1.45 1.64 1.61 1.62 1.76 1.19 1.11
0.05 0.10 0.16 0.26 0.20 0.16 0.16 0.19 0.20 0.21 0.19 0.19 0.16 0.15 0.16 0.19 0.22 0.26 0.30 0.35 0.38 0.41 0.42 0.43 0.45 0.45 0.45 0.46 0.48 0.55 0.71 0.99 1.30 1.59 1.87 1.39 1.07 1.55 1.57 1.55 1.39 1.09 0.99
0.07 0.07 0.07 0.16 0.19 0.15 0.15 0.17 0.20 0.19 0.17 0.17 0.17 0.17 0.18 0.23 0.28 0.33 0.40 0.40 0.39 0.39 0.37 0.37 0.41 0.35 0.40 0.45 0.48 0.60 0.74 1.03 1.36 1.76 1.79 1.18 0.76 1.09 1.30 1.26 1.07 0.88 0.85
0.07 0.06 0.08 0.13 0.15 0.14 0.14 0.17 0.19 0.18 0.18 0.18 0.18 0.21 0.24 0.29 0.32 0.34 0.38 0.39 0.37 0.36 0.37 0.38 0.39 0.31 0.33 0.41 0.53 0.65 0.79 1.11 1.53 1.59 1.10 1.18 1.23 1.16 1.05 1.01 0.99 0.84 0.80
0.07 0.06 0.10 0.15 0.15 0.14 0.15 0.18 0.20 0.18 0.19 0.20 0.20 0.24 0.28 0.33 0.36 0.34 0.36 0.35 0.36 0.37 0.36 0.37 0.35 0.34 0.38 0.44 0.59 0.71 0.88 1.17 1.42 1.04 0.80 0.98 1.03 1.07 1.03 0.99 0.93 0.83 0.77
0.08 0.09 0.12 0.17 0.18 0.17 0.17 0.19 0.20 0.18 0.19 0.21 0.21 0.22 0.26 0.31 0.35 0.34 0.33 0.34 0.36 0.37 0.34 0.32 0.32 0.41 0.50 0.61 0.72 0.76 0.91 1.14 1.03 0.83 0.93 1.11 1.04 1.03 1.25 1.31 1.12 0.89 0.68
0.07 0.09 0.14 0.18 0.19 0.19 0.19 0.21 0.21 0.20 0.20 0.22 0.22 0.22 0.25 0.29 0.34 0.33 0.32 0.34 0.34 0.35 0.36 0.36 0.35 0.42 0.51 0.61 0.71 0.76 0.88 0.96 0.81 0.75 0.93 1.07 0.87 0.99 1.40 1.50 1.35 1.16 0.85
0.17 0.12 0.17 0.18 0.19 0.23 0.24 0.23 0.23 0.25 0.24 0.25 0.25 0.25 0.27 0.26 0.30 0.32 0.35 0.34 0.34 0.37 0.38 0.40 0.42 0.44 0.46 0.56 0.68 0.78 0.93 1.01 0.84 0.83 0.83 0.98 0.83 1.01 1.39 1.43 1.29 1.25 1.03
0.41 0.35 0.27 0.26 0.28 0.28 0.28 0.29 0.28 0.29 0.29 0.30 0.28 0.31 0.36 0.36 0.37 0.39 0.39 0.41 0.42 0.43 0.48 0.53 0.55 0.58 0.61 0.65 0.73 0.86 0.99 0.88 0.83 0.88 0.91 0.88 0.85 1.19 1.45 1.44 1.40 1.35 1.17
0.70 0.69 0.51 0.44 0.38 0.40 0.37 0.34 0.42 0.41 0.42 0.43 0.46 0.48 0.63 0.85 0.79 0.78 0.63 0.66 0.65 0.65 0.71 0.77 0.79 0.82 0.80 0.79 0.94 1.03 0.89 0.88 1.10 0.96 0.93 0.89 1.07 1.40 1.56 1.61 1.60 1.53 1.41
0.92 0.77 0.72 0.72 0.55 0.55 0.56 0.60 0.82 0.78 0.78 0.84 0.91 0.88 1.17 1.29 1.22 0.91 0.89 1.08 1.12 1.15 1.16 1.22 1.35 1.30 1.06 0.88 1.10 1.42 1.07 1.06 1.15 0.96 0.83 0.94 1.20 1.53 1.68 1.75 1.59 1.53 1.49
1.08 0.94 1.04 1.00 0.85 0.80 0.98 0.86 0.99 1.20 1.34 1.34 1.31 1.43 1.59 1.36 1.16 1.04 1.20 1.41 1.46 1.49 1.51 1.66 1.89 1.68 1.65 1.61 1.66 1.72 1.37 1.33 1.27 1.04 1.09 1.33 1.51 1.82 1.98 1.88 1.76 1.63 1.52
1.58 1.53 1.51 1.54 1.46 1.38 1.23 1.24 1.17 1.18 1.29 1.44 1.49 1.47 1.66 1.69 1.61 1.51 1.53 1.50 1.53 1.64 1.90 1.93 2.08 2.19 2.24 2.02 1.91 1.93 1.72 1.58 1.49 1.43 1.59 1.78 1.83 2.05 2.26 2.10 1.94 1.79 1.68
2.33 2.43 2.41 2.27 2.02 2.02 1.94 1.74 1.44 1.46 1.40 1.40 1.64 1.70 1.78 1.88 1.96 1.93 1.81 1.76 1.53 1.62 1.93 2.22 2.13 2.30 2.48 2.35 2.06 1.91 1.82 1.65 1.63 1.56 1.68 1.88 1.79 1.88 2.16 2.24 2.19 2.04 1.96
3.14 3.52 3.30 3.08 2.75 2.59 2.49 2.32 2.15 1.88 1.78 1.60 1.71 1.84 1.99 2.14 2.21 2.17 1.97 1.89 1.61 1.58 1.82 2.10 2.13 2.33 2.38 2.39 1.99 1.82 1.74 1.78 1.73 1.60 1.67 1.87 1.86 1.70 1.86 2.17 2.38 2.42 2.29
3.77 4.28 4.02 3.87 3.79 3.52 3.33 2.92 2.43 2.11 1.92 2.02 2.10 2.22 2.34 2.39 2.45 2.39 2.21 1.93 1.81 1.88 1.98 1.99 2.07 2.45 2.31 2.20 2.01 2.01 1.97 1.92 1.77 1.69 1.66 1.81 1.65 1.59 1.60 1.76 2.08 2.35 2.60
3.98 4.34 4.65 4.38 4.66 4.53 4.15 3.63 3.13 2.87 2.71 2.57 2.48 2.54 2.41 2.40 2.43 2.53 2.20 1.84 1.98 2.14 2.17 2.14 2.17 2.39 2.41 2.48 2.39 2.23 2.06 1.92 1.52 1.44 1.46 1.51 1.62 1.39 1.51 1.74 1.88 2.00 2.44
4.26 4.73 5.14 5.37 5.42 4.99 4.57 4.12 3.82 3.58 3.28 2.85 2.38 2.13 1.98 1.89 1.86 1.90 1.60 1.50 1.67 1.76 1.65 1.58 1.87 2.07 2.16 2.27 2.16 1.99 1.72 1.57 1.39 1.30 1.33 1.17 1.25 1.30 1.36 1.59 1.79 1.83 2.25
4.35 5.20 5.62 5.71 5.32 4.87 4.46 3.93 3.67 3.38 3.05 2.68 2.21 1.82 1.59 1.52 1.44 1.49 1.24 1.18 1.40 1.52 1.48 1.59 1.72 1.72 1.67 1.73 1.55 1.38 1.29 1.13 1.12 1.10 0.98 0.97 0.97 0.97 1.14 1.41 1.62 1.44 1.92
4.45 5.39 5.75 5.44 4.86 4.38 3.89 3.34 2.87 2.56 2.33 2.20 1.93 1.60 1.47 1.45 1.44 1.51 1.25 1.33 1.40 1.41 1.40 1.44 1.51 1.44 1.24 1.40 1.61 1.41 1.14 1.00 0.97 0.87 0.83 0.87 0.80 0.86 1.08 1.28 1.46 1.55 1.45
3.92 4.68 4.95 4.55 3.88 3.29 2.94 2.74 2.50 2.35 2.03 1.80 1.68 1.54 1.32 1.30 1.31 1.31 1.27 1.07 1.10 1.20 1.11 1.14 1.35 1.36 1.15 1.25 1.48 1.53 1.27 1.23 1.05 0.65 0.70 0.75 0.76 0.88 1.03 1.10 1.34 1.57 1.53
3.40 3.41 3.50 3.35 2.82 2.45 2.32 2.26 2.19 2.20 1.96 1.67 1.51 1.33 1.16 1.11 1.08 1.09 1.06 1.02 1.08 1.06 1.10 1.12 1.16 1.26 1.18 1.07 1.16 1.45 1.31 1.14 0.97 0.76 0.68 0.67 0.80 0.99 1.06 1.17 1.21 1.31 1.43
2.53 2.35 2.35 2.39 2.19 2.09 1.99 1.95 1.79 1.60 1.49 1.37 1.34 1.26 1.17 1.10 1.03 0.96 0.95 0.91 0.97 0.99 1.14 0.99 1.02 1.11 1.13 0.96 0.97 1.05 1.05 1.07 1.06 0.92 0.79 0.75 0.79 0.94 1.08 1.12 1.24 1.35 1.38
1.65 1.70 1.85 2.06 2.05 1.93 1.86 1.92 1.89 1.60 1.42 1.33 1.30 1.32 1.21 1.09 1.02 0.94 0.94 0.97 0.96 0.93 0.95 0.98 1.07 1.04 1.00 0.94 0.92 0.98 1.06 1.06 1.00 0.98 0.97 0.87 0.79 0.71 0.83 1.03 1.20 1.32 1.32
1.07 1.21 1.40 1.75 1.87 1.77 1.70 1.72 1.68 1.58 1.52 1.38 1.22 1.17 1.16 1.10 1.06 1.06 1.01 1.04 0.97 0.92 0.93 0.93 0.97 0.96 1.01 1.05 0.99 0.98 1.12 1.16 1.06 1.03 0.97 0.87 0.81 0.69 0.73 0.94 1.22 1.39 1.39